When you browse on this site, cookies collect data to enhance your experience and personalize the content and advertising you see.
Visit our Privacy Policy to learn more. By continuing to use the site, you agree to this use of cookies and data.
  • In United Kingdom
  • List of Countries
  • For 7 days
  • Water Temperature
  • Weather Map
  • Weather Widgets
  • user-avatar
    Login

    Hourly Weather Megri

    Today, 14 November, Thursday

    Time Temperature Precipitation Wind Pressure Humidity
    00:00 +4°C° 0 mm 1 mps 624 mmHg 59%
    01:00 +4°C° 0 mm 1 mps 623 mmHg 59%
    02:00 +4°C° 0 mm 1 mps 623 mmHg 60%
    03:00 +3°C° 0 mm 1 mps 623 mmHg 60%
    04:00 +3°C° 0 mm 1 mps 623 mmHg 60%
    05:00 +2°C° 0 mm 0 mps 623 mmHg 61%
    06:00 +1°C° 0 mm 0 mps 622 mmHg 62%
    07:00 +4°C° 0 mm 1 mps 623 mmHg 54%
    08:00 +6°C° 0 mm 1 mps 624 mmHg 47%
    09:00 +8°C° 0 mm 1 mps 625 mmHg 39%
    10:00 +9°C° 0 mm 1 mps 625 mmHg 37%
    11:00 +10°C° 0 mm 1 mps 626 mmHg 34%
    12:00 +10°C° 0 mm 1 mps 626 mmHg 32%
    13:00 +10°C° 0 mm 1 mps 626 mmHg 32%
    14:00 +11°C° 0 mm 1 mps 625 mmHg 32%
    15:00 +11°C° 0 mm 1 mps 625 mmHg 32%
    16:00 +9°C° 0 mm 1 mps 625 mmHg 39%
    17:00 +8°C° 0 mm 1 mps 625 mmHg 46%
    18:00 +6°C° 0 mm 1 mps 624 mmHg 53%
    19:00 +5°C° 0 mm 1 mps 624 mmHg 56%
    20:00 +5°C° 0 mm 1 mps 624 mmHg 59%
    21:00 +4°C° 0 mm 1 mps 624 mmHg 63%
    22:00 +4°C° 0 mm 1 mps 624 mmHg 64%
    23:00 +3°C° 0 mm 1 mps 624 mmHg 65%

    Tomorrow, 15 November, Friday

    Time Temperature Precipitation Wind Pressure Humidity
    00:00 +3°C° 0 mm 1 mps 624 mmHg 66%
    01:00 +3°C° 0 mm 1 mps 624 mmHg 66%
    02:00 +2°C° 0 mm 1 mps 624 mmHg 66%
    03:00 +2°C° 0 mm 1 mps 623 mmHg 66%
    04:00 +1°C° 0 mm 1 mps 623 mmHg 66%
    05:00 +1°C° 0 mm 1 mps 623 mmHg 66%
    06:00 +1°C° 0 mm 1 mps 623 mmHg 66%
    07:00 +3°C° 0 mm 1 mps 624 mmHg 59%
    08:00 +4°C° 0 mm 1 mps 625 mmHg 52%
    09:00 +6°C° 0 mm 1 mps 626 mmHg 45%
    10:00 +7°C° 0 mm 1 mps 626 mmHg 43%
    11:00 +8°C° 0 mm 1 mps 626 mmHg 41%
    12:00 +9°C° 0 mm 1 mps 626 mmHg 39%
    13:00 +8°C° 0 mm 1 mps 626 mmHg 43%
    14:00 +7°C° 0 mm 2 mps 625 mmHg 46%
    15:00 +7°C° 0 mm 2 mps 625 mmHg 50%
    16:00 +5°C° 0 mm 2 mps 625 mmHg 59%
    17:00 +3°C° 0 mm 3 mps 624 mmHg 69%
    18:00 +1°C° 0 mm 3 mps 624 mmHg 78%
    19:00 +1°C° 0 mm 3 mps 624 mmHg 79%
    20:00 +1°C° 0 mm 3 mps 625 mmHg 81%
    21:00 0°C° 0 mm 3 mps 625 mmHg 82%
    22:00 0°C° 0 mm 3 mps 625 mmHg 82%
    23:00 -1°C° 0 mm 3 mps 625 mmHg 81%

    Day after tomorrow, 16 November, Saturday

    Time Temperature Precipitation Wind Pressure Humidity
    00:00 -1°C° 0 mm 3 mps 625 mmHg 81%
    01:00 -1°C° 0 mm 3 mps 625 mmHg 82%
    02:00 -2°C° 0 mm 3 mps 625 mmHg 83%
    03:00 -2°C° 0 mm 3 mps 625 mmHg 83%
    04:00 -2°C° 0 mm 3 mps 625 mmHg 83%
    05:00 -2°C° 0 mm 3 mps 625 mmHg 83%
    06:00 -4°C° 0 mm 3 mps 625 mmHg 83%
    07:00 -2°C° 0 mm 3 mps 626 mmHg 78%
    08:00 -2°C° 0 mm 3 mps 626 mmHg 73%
    09:00 -1°C° 0 mm 3 mps 627 mmHg 68%
    10:00 -1°C° 0 mm 4 mps 627 mmHg 60%
    11:00 0°C° 0 mm 4 mps 627 mmHg 52%
    12:00 +1°C° 0 mm 4 mps 627 mmHg 44%
    13:00 +1°C° 0 mm 4 mps 627 mmHg 43%
    14:00 0°C° 0 mm 4 mps 627 mmHg 41%
    15:00 0°C° 0 mm 4 mps 626 mmHg 40%
    16:00 0°C° 0 mm 3 mps 626 mmHg 47%
    17:00 -1°C° 0 mm 3 mps 626 mmHg 54%
    18:00 -2°C° 0 mm 3 mps 626 mmHg 62%
    19:00 -2°C° 0 mm 3 mps 626 mmHg 64%
    20:00 -3°C° 0 mm 2 mps 626 mmHg 66%
    21:00 -3°C° 0 mm 2 mps 626 mmHg 68%
    22:00 -3°C° 0 mm 2 mps 626 mmHg 68%
    23:00 -3°C° 0 mm 2 mps 626 mmHg 69%

    17 November, Sunday

    Time Temperature Precipitation Wind Pressure Humidity
    00:00 -3°C° 0 mm 2 mps 626 mmHg 69%
    01:00 -4°C° 0 mm 2 mps 626 mmHg 69%
    02:00 -4°C° 0 mm 2 mps 626 mmHg 68%
    03:00 -4°C° 0 mm 2 mps 626 mmHg 68%
    04:00 -4°C° 0 mm 2 mps 626 mmHg 68%
    05:00 -4°C° 0 mm 2 mps 626 mmHg 69%
    06:00 -5°C° 0 mm 2 mps 626 mmHg 69%
    07:00 -3°C° 0 mm 2 mps 626 mmHg 63%
    08:00 -2°C° 0 mm 2 mps 627 mmHg 56%
    09:00 -1°C° 0 mm 2 mps 627 mmHg 50%
    10:00 +1°C° 0 mm 2 mps 627 mmHg 47%
    11:00 +2°C° 0 mm 2 mps 627 mmHg 44%
    12:00 +2°C° 0 mm 2 mps 627 mmHg 40%
    13:00 +1°C° 0 mm 3 mps 627 mmHg 41%
    14:00 +1°C° 0 mm 3 mps 626 mmHg 42%
    15:00 +1°C° 0 mm 3 mps 626 mmHg 43%
    16:00 0°C° 0 mm 3 mps 626 mmHg 49%
    17:00 -1°C° 0 mm 3 mps 626 mmHg 56%
    18:00 -2°C° 0 mm 3 mps 626 mmHg 62%
    19:00 -2°C° 0 mm 3 mps 626 mmHg 66%
    20:00 -3°C° 0 mm 2 mps 626 mmHg 70%
    21:00 -3°C° 0 mm 2 mps 626 mmHg 74%
    22:00 -3°C° 0 mm 2 mps 626 mmHg 75%
    23:00 -3°C° 0 mm 2 mps 625 mmHg 77%

    18 November, Monday

    Time Temperature Precipitation Wind Pressure Humidity
    00:00 -4°C° 0 mm 2 mps 625 mmHg 79%
    01:00 -4°C° 0 mm 2 mps 625 mmHg 78%
    02:00 -4°C° 0 mm 2 mps 625 mmHg 78%
    03:00 -4°C° 0 mm 2 mps 625 mmHg 78%
    04:00 -2°C° 0 mm 1 mps 625 mmHg 79%
    05:00 -2°C° 0 mm 1 mps 625 mmHg 79%
    06:00 -2°C° 0 mm 1 mps 625 mmHg 80%
    07:00 -3°C° 0 mm 2 mps 625 mmHg 76%
    08:00 -2°C° 0 mm 2 mps 625 mmHg 71%
    09:00 -1°C° 0 mm 2 mps 626 mmHg 67%
    10:00 +1°C° 0 mm 2 mps 626 mmHg 63%
    11:00 +2°C° 0 mm 2 mps 626 mmHg 59%
    12:00 +3°C° 0 mm 2 mps 626 mmHg 56%
    13:00 +3°C° 0 mm 2 mps 625 mmHg 57%
    14:00 +3°C° 0 mm 2 mps 625 mmHg 58%
    15:00 +3°C° 0 mm 2 mps 625 mmHg 60%
    16:00 +2°C° 0 mm 2 mps 624 mmHg 65%
    17:00 +1°C° 0 mm 2 mps 624 mmHg 70%
    18:00 -1°C° 0 mm 2 mps 624 mmHg 76%
    19:00 -1°C° 0 mm 2 mps 624 mmHg 78%
    20:00 -2°C° 0 mm 2 mps 624 mmHg 79%
    21:00 0°C° 0 mm 1 mps 624 mmHg 81%
    22:00 0°C° 0 mm 1 mps 624 mmHg 81%
    23:00 0°C° 0 mm 1 mps 624 mmHg 81%

    19 November, Tuesday

    Time Temperature Precipitation Wind Pressure Humidity
    00:00 0°C° 0 mm 1 mps 624 mmHg 81%
    01:00 -1°C° 0 mm 1 mps 624 mmHg 82%
    02:00 -1°C° 0 mm 1 mps 623 mmHg 82%
    03:00 -1°C° 0 mm 1 mps 623 mmHg 82%
    04:00 -1°C° 0 mm 1 mps 623 mmHg 82%
    05:00 -1°C° 0 mm 1 mps 623 mmHg 82%
    06:00 -1°C° 0 mm 1 mps 623 mmHg 81%
    07:00 0°C° 0 mm 1 mps 624 mmHg 75%
    08:00 +1°C° 0 mm 1 mps 624 mmHg 69%
    09:00 +1°C° 0 mm 0 mps 625 mmHg 64%
    10:00 +2°C° 0 mm 1 mps 625 mmHg 62%
    11:00 +3°C° 0 mm 1 mps 624 mmHg 61%
    12:00 +4°C° 0 mm 1 mps 624 mmHg 59%
    13:00 +3°C° 0.1 mm 1 mps 624 mmHg 63%
    14:00 +3°C° 0.1 mm 1 mps 624 mmHg 68%
    15:00 +2°C° 0.1 mm 2 mps 623 mmHg 72%
    16:00 +1°C° 0.1 mm 2 mps 623 mmHg 76%
    17:00 +1°C° 0.1 mm 2 mps 623 mmHg 80%
    18:00 +1°C° 0.1 mm 1 mps 623 mmHg 83%
    19:00 +1°C° 0.3 mm 1 mps 623 mmHg 86%
    20:00 +1°C° 0.3 mm 1 mps 623 mmHg 89%
    21:00 +1°C° 0.3 mm 1 mps 624 mmHg 91%
    22:00 0°C° 0.1 mm 1 mps 623 mmHg 91%
    23:00 0°C° 0.1 mm 1 mps 623 mmHg 91%
    Show more